| time (UTC) | temp F | wind direction | speed MPH | gust MPH | rain 1hr in | rain 24hr in | rain mn in | humidity % | barometer mb |
| 20260502163043 | 57 | 304 | 3.0 | 6.0 | 0.00 | 0.00 | 0.00 | 26 | 1023.3 |
| 20260502161540 | 57 | 28 | 2.0 | 6.0 | 0.00 | 0.00 | 0.00 | 26 | 1023.3 |
| 20260502151537 | 55 | 24 | 1.0 | 5.0 | 0.00 | 0.00 | 0.00 | 30 | 1023.4 |
| 20260502123003 | 40 | 313 | 1.0 | 3.0 | 0.00 | 0.00 | 0.00 | 59 | 1022.8 |
| 20260502121600 | 39 | 314 | 0.0 | 2.0 | 0.00 | 0.00 | 0.00 | 60 | 1022.7 |
| 20260502121505 | 39 | 314 | 0.0 | 2.0 | 0.00 | 0.00 | 0.00 | 60 | 1022.8 |
| 20260502114608 | 38 | 315 | 0.0 | 3.0 | 0.00 | 0.00 | 0.00 | 60 | 1022.2 |
| 20260502113055 | 38 | 315 | 1.0 | 3.0 | 0.00 | 0.00 | 0.00 | 59 | 1022.0 |
| 20260502111555 | 39 | 315 | 1.0 | 2.0 | 0.00 | 0.00 | 0.00 | 58 | 1021.9 |
| 20260502110050 | 39 | 315 | 1.0 | 3.0 | 0.00 | 0.00 | 0.00 | 58 | 1021.8 |
| 20260502104551 | 39 | 313 | 1.0 | 2.0 | 0.00 | 0.00 | 0.00 | 58 | 1021.8 |
| 20260502103046 | 39 | 313 | 1.0 | 3.0 | 0.00 | 0.00 | 0.00 | 58 | 1021.8 |
| 20260502101612 | 39 | 313 | 0.0 | 2.0 | 0.00 | 0.00 | 0.00 | 58 | 1021.6 |
| 20260502071523 | 42 | 314 | 0.0 | 0.0 | 0.00 | 0.00 | 0.00 | 52 | 1021.1 |
| 20260502070033 | 43 | 314 | 0.0 | 0.0 | 0.00 | 0.00 | 0.00 | 51 | 1021.2 |
| 20260502064520 | 43 | 314 | 0.0 | 0.0 | 0.00 | 0.00 | 0.00 | 50 | 1021.3 |
| 20260502063020 | 43 | 314 | 0.0 | 1.0 | 0.00 | 0.00 | 0.00 | 51 | 1021.3 |
| 20260502061518 | 43 | 314 | 0.0 | 0.0 | 0.00 | 0.00 | 0.00 | 49 | 1021.2 |
| 20260502060017 | 44 | 314 | 0.0 | 0.0 | 0.00 | 0.00 | 0.00 | 47 | 1021.2 |
| 20260502054513 | 45 | 314 | 0.0 | 1.0 | 0.00 | 0.00 | 0.00 | 46 | 1021.3 |
| 20260502053010 | 46 | 314 | 0.0 | 0.0 | 0.00 | 0.00 | 0.00 | 45 | 1021.1 |
| 20260502051508 | 47 | 313 | 0.0 | 2.0 | 0.00 | 0.00 | 0.00 | 42 | 1021.2 |
| 20260502050008 | 47 | 313 | 0.0 | 1.0 | 0.00 | 0.00 | 0.00 | 40 | 1021.1 |
| 20260502044509 | 48 | 313 | 0.0 | 2.0 | 0.00 | 0.00 | 0.00 | 40 | 1021.0 |
| 20260502043004 | 49 | 314 | 1.0 | 4.0 | 0.00 | 0.00 | 0.00 | 38 | 1020.9 |
| 20260502041503 | 49 | 318 | 0.0 | 2.0 | 0.00 | 0.00 | 0.00 | 39 | 1020.8 |
| 20260502040003 | 48 | 317 | 0.0 | 1.0 | 0.00 | 0.00 | 0.00 | 40 | 1020.7 |
| 20260502034505 | 48 | 315 | 0.0 | 2.0 | 0.00 | 0.00 | 0.00 | 42 | 1020.8 |
| 20260502033002 | 47 | 315 | 0.0 | 1.0 | 0.00 | 0.00 | 0.00 | 45 | 1020.6 |
| 20260502031502 | 47 | 315 | 0.0 | 1.0 | 0.00 | 0.00 | 0.00 | 47 | 1020.4 |
| 20260502030001 | 48 | 315 | 0.0 | 0.0 | 0.00 | 0.00 | 0.00 | 46 | 1020.3 |
| 20260502024600 | 49 | 315 | 0.0 | 0.0 | 0.00 | 0.00 | 0.00 | 44 | 1020.0 |
| 20260502023125 | 50 | 315 | 0.0 | 0.0 | 0.00 | 0.00 | 0.00 | 41 | 1019.8 |
| 20260502021600 | 51 | 315 | 0.0 | 1.0 | 0.00 | 0.00 | 0.00 | 41 | 1019.4 |
| 20260502020112 | 51 | 315 | 0.0 | 0.0 | 0.00 | 0.00 | 0.00 | 42 | 1019.1 |
| 20260502020002 | 51 | 315 | 0.0 | 0.0 | 0.00 | 0.00 | 0.00 | 41 | 1019.1 |
| 20260502014559 | 53 | 315 | 0.0 | 2.0 | 0.00 | 0.00 | 0.00 | 38 | 1018.9 |
| 20260502013113 | 55 | 315 | 0.0 | 2.0 | 0.00 | 0.00 | 0.00 | 35 | 1018.7 |
| 20260502011608 | 56 | 315 | 0.0 | 3.0 | 0.00 | 0.00 | 0.00 | 32 | 1018.6 |
| 20260502010100 | 57 | 313 | 0.0 | 3.0 | 0.00 | 0.00 | 0.00 | 30 | 1018.2 |
| 20260502004621 | 58 | 315 | 1.0 | 4.0 | 0.00 | 0.00 | 0.00 | 28 | 1018.2 |
| 20260502003101 | 59 | 281 | 0.0 | 6.0 | 0.00 | 0.00 | 0.00 | 28 | 1017.9 |
| 20260502001609 | 60 | 289 | 2.0 | 8.0 | 0.00 | 0.00 | 0.00 | 28 | 1017.8 |
| 20260501234606 | 61 | 346 | 3.0 | 9.0 | 0.00 | 0.00 | 0.00 | 24 | 1017.5 |
| 20260501233059 | 62 | 296 | 4.0 | 11.0 | 0.00 | 0.00 | 0.00 | 22 | 1017.4 |
| 20260501231555 | 63 | 325 | 2.0 | 7.0 | 0.00 | 0.00 | 0.00 | 24 | 1017.5 |
| 20260501230055 | 63 | 37 | 3.0 | 9.0 | 0.00 | 0.00 | 0.00 | 23 | 1017.3 |
| 20260501224551 | 63 | 323 | 3.0 | 10.0 | 0.00 | 0.00 | 0.00 | 22 | 1017.4 |
| 20260501223051 | 64 | 217 | 2.0 | 9.0 | 0.00 | 0.00 | 0.00 | 23 | 1017.5 |
| 20260501221550 | 64 | 336 | 3.0 | 9.0 | 0.00 | 0.00 | 0.00 | 22 | 1017.5 |
| 20260501220129 | 65 | 327 | 4.0 | 13.0 | 0.00 | 0.00 | 0.00 | 20 | 1017.6 |
| 20260501214548 | 65 | 355 | 4.0 | 10.0 | 0.00 | 0.00 | 0.00 | 19 | 1017.7 |
| 20260501213057 | 63 | 248 | 3.0 | 11.0 | 0.00 | 0.00 | 0.00 | 20 | 1017.9 |
| 20260501211545 | 65 | 315 | 3.0 | 12.0 | 0.00 | 0.00 | 0.00 | 20 | 1018.2 |
| 20260501210100 | 64 | 343 | 4.0 | 10.0 | 0.00 | 0.00 | 0.00 | 23 | 1018.3 |
| 20260501204544 | 64 | 333 | 3.0 | 6.0 | 0.00 | 0.00 | 0.00 | 29 | 1018.5 |
| 20260501203041 | 62 | 216 | 3.0 | 9.0 | 0.00 | 0.00 | 0.00 | 27 | 1018.8 |
| 20260501201542 | 63 | 302 | 3.0 | 9.0 | 0.00 | 0.00 | 0.00 | 27 | 1018.8 |
| 20260501200038 | 63 | 238 | 3.0 | 11.0 | 0.00 | 0.00 | 0.00 | 26 | 1018.9 |
| 20260501194539 | 63 | 285 | 4.0 | 10.0 | 0.00 | 0.00 | 0.00 | 23 | 1018.9 |
| 20260501193045 | 65 | 255 | 2.0 | 10.0 | 0.00 | 0.00 | 0.00 | 27 | 1019.1 |
| 20260501191535 | 63 | 244 | 2.0 | 10.0 | 0.00 | 0.00 | 0.00 | 27 | 1019.1 |
| 20260501190038 | 64 | 254 | 5.0 | 12.0 | 0.00 | 0.00 | 0.00 | 31 | 1019.2 |
| 20260501184533 | 63 | 229 | 2.0 | 9.0 | 0.00 | 0.00 | 0.00 | 25 | 1019.3 |
| 20260501183045 | 64 | 318 | 4.0 | 10.0 | 0.00 | 0.00 | 0.00 | 27 | 1019.4 |
| 20260501181550 | 63 | 275 | 4.0 | 12.0 | 0.00 | 0.00 | 0.00 | 24 | 1019.5 |
| 20260501180028 | 63 | 262 | 4.0 | 11.0 | 0.00 | 0.00 | 0.00 | 26 | 1019.7 |
| 20260501174526 | 62 | 238 | 3.0 | 9.0 | 0.00 | 0.00 | 0.00 | 29 | 1020.0 |
| 20260501173025 | 62 | 253 | 2.0 | 9.0 | 0.00 | 0.00 | 0.00 | 30 | 1020.1 |
| 20260501171526 | 61 | 338 | 3.0 | 6.0 | 0.00 | 0.00 | 0.00 | 27 | 1020.4 |